Terminal Aerodrome Forecast
Issued by NWS Milwaukee/Sullivan, WI

Home | Current Version | Previous Version | Text Only | Print | Product List | Glossary On
Versions: 1 2 3 4 5 6 7 8 9 10 11 12 13 14 15 16 17 18 19 20 21 22 23 24 25 26 27 28 29 30 31 32 33 34 35 36 37 38 39 40 41 42 43 44 45 46 47 48 49 50
000
FTUS43 KMKX 301403 AAA
TAFMSN
TAF AMD
KMSN 301403Z 3014/3112 25007KT P6SM BKN080
     FM302000 23007KT P6SM BKN080
     FM302300 16008KT P6SM OVC070
     FM310300 23010KT P6SM BKN080 WS020/25045KT
     FM310700 30010KT P6SM SCT250 WS020/31045KT
     FM311100 32008KT P6SM SCT020=

USA.gov is the U.S. government's official web portal to all federal, state and local government web resources and services.